Location: ????????
(55.1591°N, 39.1782°E)
Time: 21:39:18
(UTC+00:00)

Gbstr 26 Del rocket - Pass Details

Date: 14 April 2024
Orbit: 491 x 1240 km, 51.8° (Epoch: 22 May)

Event Time Altitude Azimuth Distance (km) Brightness Sun altitude
Exits shadow 00:32:53 22° 206° (SSW) 1,229 4.0 -14.3°
Maximum altitude 00:34:44 34° 159° (SSE) 903 3.7 -14.1°
Drops below altitude 10° 00:38:12 10° 94° (E) 1,718 6.0 -13.7°
Sets 00:40:25 0° 84° (E) 2,577 7.2 -13.4°
